TimeCST,TemperatureF,Dew PointF,Humidity,Sea Level PressureIn,VisibilityMPH,Wind Direction,Wind SpeedMPH,Gust SpeedMPH,PrecipitationIn,Events,Conditions,WindDirDegrees,DateUTC
12:00 AM,53.6,53.6,100,30.28,0.8,NNE,3.5,-,N/A,,Clear,30,2013-01-28 06:00:00
12:03 AM,53.6,53.6,100,30.28,1.0,Calm,Calm,-,N/A,,Clear,0,2013-01-28 06:03:00
12:04 AM,53.6,53.6,100,30.28,1.0,NE,3.5,-,N/A,,Clear,50,2013-01-28 06:04:00
12:05 AM,53.6,53.6,100,30.28,1.2,NE,3.5,-,N/A,,Clear,50,2013-01-28 06:05:00
12:06 AM,53.6,53.6,100,30.28,1.8,NE,3.5,-,N/A,,Clear,50,2013-01-28 06:06:00
12:07 AM,53.6,53.6,100,30.28,2.0,NE,3.5,-,N/A,,Clear,50,2013-01-28 06:07:00
12:09 AM,53.6,53.6,100,30.28,3.0,ENE,3.5,-,N/A,,Partly Cloudy,60,2013-01-28 06:09:00
12:12 AM,53.6,53.6,100,30.28,4.0,ENE,3.5,-,N/A,,Partly Cloudy,60,2013-01-28 06:12:00
12:32 AM,57.2,57.2,100,30.28,6.0,ENE,4.6,-,N/A,,Light Drizzle,70,2013-01-28 06:32:00
12:43 AM,57.2,57.2,100,30.28,8.0,ENE,4.6,-,N/A,,Light Drizzle,60,2013-01-28 06:43:00
12:55 AM,58.5,58.5,100,30.28,7.0,Calm,Calm,-,0.00,,Light Drizzle,0,2013-01-28 06:55:00
1:29 AM,57.2,57.2,100,30.28,6.0,ENE,4.6,-,N/A,,Mostly Cloudy,60,2013-01-28 07:29:00
1:32 AM,57.2,57.2,100,30.28,6.0,ENE,4.6,-,N/A,,Light Drizzle,60,2013-01-28 07:32:00
1:43 AM,59.0,59.0,100,30.28,6.0,East,4.6,-,N/A,,Light Drizzle,80,2013-01-28 07:43:00
1:47 AM,59.0,59.0,100,30.28,6.0,East,4.6,-,N/A,,Scattered Clouds,90,2013-01-28 07:47:00
1:50 AM,59.0,59.0,100,30.28,6.0,East,4.6,-,N/A,,Light Drizzle,100,2013-01-28 07:50:00
1:53 AM,59.0,59.0,100,30.28,6.0,East,5.8,-,N/A,,Light Drizzle,90,2013-01-28 07:53:00
1:54 AM,59.0,59.0,100,30.28,6.0,East,5.8,-,N/A,,Light Drizzle,90,2013-01-28 07:54:00
1:55 AM,58.6,58.6,100,30.28,6.0,East,6.9,-,0.00,,Light Drizzle,90,2013-01-28 07:55:00
1:56 AM,59.0,59.0,100,30.28,6.0,East,6.9,-,N/A,,Light Drizzle,90,2013-01-28 07:56:00
2:32 AM,59.0,59.0,100,30.28,9.0,East,5.8,-,N/A,,Light Drizzle,90,2013-01-28 08:32:00
2:34 AM,59.0,59.0,100,30.28,9.0,East,5.8,-,N/A,,Light Drizzle,100,2013-01-28 08:34:00
2:55 AM,61.7,61.7,100,30.27,10.0,ESE,10.4,-,0.00,,Light Drizzle,120,2013-01-28 08:55:00
3:22 AM,62.6,62.6,100,30.28,10.0,ESE,9.2,-,N/A,,Light Drizzle,120,2013-01-28 09:22:00
3:23 AM,62.6,62.6,100,30.28,10.0,ESE,8.1,-,N/A,,Light Drizzle,120,2013-01-28 09:23:00
3:25 AM,62.6,62.6,100,30.27,10.0,ESE,8.1,-,N/A,,Light Drizzle,120,2013-01-28 09:25:00
3:32 AM,62.6,62.6,100,30.27,10.0,ESE,10.4,-,N/A,,Overcast,120,2013-01-28 09:32:00
3:39 AM,62.6,62.6,100,30.27,10.0,ESE,10.4,-,N/A,,Light Drizzle,120,2013-01-28 09:39:00
3:45 AM,62.6,62.6,100,30.27,10.0,ESE,11.5,-,N/A,,Mostly Cloudy,120,2013-01-28 09:45:00
3:46 AM,62.6,62.6,100,30.27,10.0,ESE,9.2,-,N/A,,Light Drizzle,120,2013-01-28 09:46:00
3:55 AM,62.1,62.1,100,30.27,10.0,ESE,10.4,-,0.00,,Light Drizzle,120,2013-01-28 09:55:00
3:58 AM,62.6,62.6,100,30.27,10.0,ESE,10.4,-,N/A,,Scattered Clouds,120,2013-01-28 09:58:00
4:01 AM,62.6,62.6,100,30.26,10.0,ESE,10.4,-,N/A,,Light Drizzle,120,2013-01-28 10:01:00
4:02 AM,62.6,62.6,100,30.26,10.0,ESE,10.4,-,N/A,,Mostly Cloudy,120,2013-01-28 10:02:00
4:05 AM,62.6,62.6,100,30.26,10.0,SE,9.2,-,N/A,,Light Drizzle,130,2013-01-28 10:05:00
4:06 AM,62.6,62.6,100,30.26,10.0,SE,9.2,-,N/A,,Light Drizzle,130,2013-01-28 10:06:00
4:39 AM,62.6,62.6,100,30.27,10.0,ESE,11.5,-,N/A,,Overcast,120,2013-01-28 10:39:00
4:55 AM,62.6,62.6,100,30.27,10.0,ESE,9.2,-,0.00,,Overcast,120,2013-01-28 10:55:00
4:56 AM,62.6,62.6,100,30.27,10.0,ESE,9.2,-,N/A,,Overcast,110,2013-01-28 10:56:00
4:59 AM,62.6,62.6,100,30.27,10.0,ESE,10.4,-,N/A,,Light Drizzle,110,2013-01-28 10:59:00
5:32 AM,60.8,60.8,100,30.28,10.0,ENE,9.2,-,N/A,,Overcast,70,2013-01-28 11:32:00
5:40 AM,60.8,60.8,100,30.28,10.0,East,8.1,-,N/A,,Light Drizzle,90,2013-01-28 11:40:00
5:47 AM,60.8,60.8,100,30.29,10.0,East,6.9,-,N/A,,Overcast,90,2013-01-28 11:47:00
5:52 AM,60.8,60.8,100,30.29,10.0,East,6.9,-,N/A,,Light Drizzle,90,2013-01-28 11:52:00
5:55 AM,61.0,61.0,100,30.29,10.0,East,6.9,-,0.00,,Light Drizzle,80,2013-01-28 11:55:00
6:01 AM,60.8,60.8,100,30.29,10.0,East,6.9,-,N/A,,Overcast,80,2013-01-28 12:01:00
6:14 AM,60.8,60.8,100,30.29,10.0,East,9.2,-,N/A,,Light Drizzle,90,2013-01-28 12:14:00
6:20 AM,60.8,60.8,100,30.29,10.0,East,9.2,-,N/A,,Light Drizzle,100,2013-01-28 12:20:00
6:52 AM,60.8,60.8,100,30.30,10.0,East,8.1,-,N/A,,Overcast,100,2013-01-28 12:52:00
6:55 AM,60.3,60.3,100,30.30,10.0,East,8.1,-,0.00,,Overcast,100,2013-01-28 12:55:00
6:56 AM,60.8,60.8,100,30.30,10.0,East,8.1,-,N/A,,Light Drizzle,100,2013-01-28 12:56:00
7:00 AM,60.8,60.8,100,30.28,10.0,East,6.9,-,N/A,,Mostly Cloudy,90,2013-01-28 13:00:00
7:16 AM,60.8,60.8,100,30.30,10.0,East,6.9,-,N/A,,Overcast,90,2013-01-28 13:16:00
7:24 AM,60.8,60.8,100,30.30,10.0,East,8.1,-,N/A,,Light Drizzle,100,2013-01-28 13:24:00
7:55 AM,62.6,62.6,100,30.30,10.0,East,8.1,-,0.00,,Light Drizzle,100,2013-01-28 13:55:00
8:30 AM,64.4,64.4,100,30.30,10.0,East,9.2,-,N/A,,Overcast,100,2013-01-28 14:30:00
8:31 AM,64.4,64.4,100,30.30,10.0,East,9.2,-,N/A,,Light Drizzle,100,2013-01-28 14:31:00
8:55 AM,63.5,63.5,100,30.31,10.0,East,8.1,-,0.00,,Light Drizzle,90,2013-01-28 14:55:00
8:57 AM,64.4,64.4,100,30.31,10.0,East,8.1,-,N/A,,Overcast,100,2013-01-28 14:57:00
9:01 AM,64.4,64.4,100,30.31,10.0,East,9.2,-,N/A,,Light Drizzle,100,2013-01-28 15:01:00
9:14 AM,62.6,62.6,100,30.32,10.0,East,9.2,-,N/A,,Overcast,90,2013-01-28 15:14:00
9:20 AM,62.6,62.6,100,30.32,10.0,East,9.2,-,N/A,,Light Drizzle,90,2013-01-28 15:20:00
9:55 AM,64.9,64.9,100,30.32,10.0,East,8.1,-,0.00,,Light Drizzle,90,2013-01-28 15:55:00
10:09 AM,64.4,64.4,100,30.32,10.0,East,9.2,-,N/A,,Light Drizzle,100,2013-01-28 16:09:00
10:55 AM,66.4,66.4,100,30.31,10.0,ESE,8.1,-,0.00,,Light Drizzle,110,2013-01-28 16:55:00
10:59 AM,66.2,66.2,100,30.32,10.0,ESE,9.2,-,N/A,,Overcast,120,2013-01-28 16:59:00
11:03 AM,66.2,66.2,100,30.31,10.0,ESE,12.7,-,N/A,,Light Drizzle,120,2013-01-28 17:03:00
11:25 AM,66.2,66.2,100,30.30,10.0,ESE,13.8,-,N/A,,Light Drizzle,120,2013-01-28 17:25:00
11:37 AM,66.2,66.2,100,30.30,10.0,ESE,12.7,-,N/A,,Overcast,110,2013-01-28 17:37:00
11:38 AM,66.2,66.2,100,30.30,10.0,ESE,11.5,-,N/A,,Light Drizzle,110,2013-01-28 17:38:00
11:52 AM,68.0,68.0,100,30.29,10.0,ESE,11.5,-,N/A,,Light Drizzle,110,2013-01-28 17:52:00
11:55 AM,67.3,67.3,100,30.29,10.0,ESE,10.4,-,0.00,,Light Drizzle,110,2013-01-28 17:55:00
11:58 AM,68.0,68.0,100,30.29,10.0,ESE,10.4,-,N/A,,Light Drizzle,110,2013-01-28 17:58:00
11:59 AM,68.0,68.0,100,30.29,10.0,East,9.2,-,N/A,,Light Drizzle,100,2013-01-28 17:59:00
12:02 PM,68.0,68.0,100,30.28,10.0,East,9.2,-,N/A,,Light Drizzle,90,2013-01-28 18:02:00
12:04 PM,68.0,68.0,100,30.28,10.0,East,10.4,-,N/A,,Light Drizzle,90,2013-01-28 18:04:00
12:14 PM,68.0,68.0,100,30.28,10.0,ESE,9.2,-,N/A,,Light Drizzle,110,2013-01-28 18:14:00
12:23 PM,68.0,68.0,100,30.28,10.0,East,8.1,-,N/A,,Overcast,100,2013-01-28 18:23:00
12:37 PM,68.0,68.0,100,30.27,10.0,ESE,9.2,-,N/A,,Light Drizzle,110,2013-01-28 18:37:00
12:55 PM,67.8,67.8,100,30.27,10.0,ESE,9.2,-,0.00,,Light Drizzle,120,2013-01-28 18:55:00
1:50 PM,68.0,68.0,100,30.25,10.0,East,9.2,-,N/A,,Overcast,90,2013-01-28 19:50:00
1:51 PM,68.0,68.0,100,30.25,10.0,East,8.1,-,N/A,,Light Drizzle,100,2013-01-28 19:51:00
1:53 PM,68.0,68.0,100,30.25,10.0,ESE,6.9,-,N/A,,Overcast,110,2013-01-28 19:53:00
1:55 PM,67.1,67.1,100,30.25,10.0,East,6.9,-,0.00,,Overcast,90,2013-01-28 19:55:00
1:59 PM,66.2,66.2,100,30.25,10.0,East,6.9,-,N/A,,Light Drizzle,90,2013-01-28 19:59:00
2:14 PM,68.0,68.0,100,30.24,10.0,East,8.1,-,N/A,,Light Drizzle,100,2013-01-28 20:14:00
2:16 PM,68.0,68.0,100,30.24,10.0,ESE,8.1,-,N/A,,Mostly Cloudy,110,2013-01-28 20:16:00
2:25 PM,68.0,68.0,100,30.24,10.0,ESE,8.1,-,N/A,,Light Drizzle,120,2013-01-28 20:25:00
2:54 PM,68.0,68.0,100,30.24,10.0,SE,8.1,-,N/A,,Mostly Cloudy,130,2013-01-28 20:54:00
2:55 PM,68.0,68.0,100,30.24,10.0,SE,8.1,-,0.00,,Mostly Cloudy,130,2013-01-28 20:55:00
3:06 PM,68.0,68.0,100,30.23,10.0,ESE,9.2,-,N/A,,Light Drizzle,120,2013-01-28 21:06:00
3:51 PM,68.0,68.0,100,30.23,10.0,ESE,8.1,-,N/A,,Overcast,110,2013-01-28 21:51:00
3:55 PM,67.6,67.6,100,30.23,10.0,ESE,10.4,-,0.00,,Light Drizzle,110,2013-01-28 21:55:00
4:15 PM,68.0,68.0,100,30.23,10.0,ESE,8.1,-,N/A,,Scattered Clouds,110,2013-01-28 22:15:00
4:26 PM,68.0,68.0,100,30.23,10.0,ESE,8.1,-,N/A,Rain,Light Rain,110,2013-01-28 22:26:00
4:28 PM,68.0,68.0,100,30.23,10.0,East,5.8,-,N/A,Rain,Light Rain,100,2013-01-28 22:28:00
4:46 PM,66.2,66.2,100,30.23,10.0,ESE,8.1,-,N/A,,Overcast,110,2013-01-28 22:46:00
4:51 PM,66.2,66.2,100,30.23,10.0,East,6.9,-,N/A,,Overcast,100,2013-01-28 22:51:00
4:55 PM,66.9,66.9,100,30.24,10.0,ESE,5.8,-,0.00,,Overcast,110,2013-01-28 22:55:00
4:58 PM,66.2,66.2,100,30.23,10.0,ESE,5.8,-,N/A,,Overcast,110,2013-01-28 22:58:00
5:07 PM,66.2,66.2,100,30.24,10.0,East,5.8,-,N/A,,Light Drizzle,100,2013-01-28 23:07:00
5:16 PM,66.2,66.2,100,30.24,10.0,ESE,4.6,-,N/A,,Overcast,110,2013-01-28 23:16:00
5:38 PM,66.2,66.2,100,30.23,10.0,East,6.9,-,N/A,,Light Drizzle,100,2013-01-28 23:38:00
5:55 PM,66.4,66.4,100,30.23,10.0,ESE,5.8,-,0.00,,Light Drizzle,120,2013-01-28 23:55:00
6:55 PM,66.0,66.0,100,30.23,10.0,SE,8.1,-,0.00,,Light Drizzle,140,2013-01-29 00:55:00
7:06 PM,66.2,66.2,100,30.23,10.0,SE,6.9,-,N/A,,Overcast,130,2013-01-29 01:06:00
7:43 PM,66.2,66.2,100,30.23,10.0,SE,4.6,-,N/A,,Light Drizzle,130,2013-01-29 01:43:00
7:52 PM,66.2,66.2,100,30.23,10.0,SE,4.6,-,N/A,,Overcast,130,2013-01-29 01:52:00
7:55 PM,65.8,65.8,100,30.23,10.0,SE,5.8,-,0.00,,Overcast,130,2013-01-29 01:55:00
8:02 PM,66.2,66.2,100,30.23,10.0,ESE,4.6,-,N/A,,Light Drizzle,120,2013-01-29 02:02:00
8:55 PM,65.8,65.8,100,30.22,10.0,SE,4.6,-,0.00,,Light Drizzle,130,2013-01-29 02:55:00
9:00 PM,66.2,66.2,100,30.22,10.0,SE,4.6,-,N/A,,Overcast,140,2013-01-29 03:00:00
9:02 PM,66.2,66.2,100,30.22,10.0,Variable,4.6,-,N/A,,Light Drizzle,0,2013-01-29 03:02:00
9:55 PM,65.5,65.5,100,30.22,10.0,ESE,4.6,-,0.00,,Overcast,120,2013-01-29 03:55:00
10:03 PM,64.4,64.4,100,30.21,10.0,ESE,3.5,-,N/A,,Light Drizzle,110,2013-01-29 04:03:00
10:22 PM,64.4,64.4,100,30.21,10.0,ESE,5.8,-,N/A,,Light Drizzle,120,2013-01-29 04:22:00
10:55 PM,64.8,64.8,100,30.20,10.0,ESE,5.8,-,0.00,,Light Drizzle,120,2013-01-29 04:55:00
11:10 PM,64.4,64.4,100,30.20,10.0,ESE,6.9,-,N/A,,Light Drizzle,120,2013-01-29 05:10:00
11:38 PM,66.2,66.2,100,30.19,10.0,ESE,4.6,-,N/A,,Overcast,120,2013-01-29 05:38:00
11:45 PM,66.2,66.2,100,30.19,10.0,ESE,5.8,-,N/A,,Light Drizzle,120,2013-01-29 05:45:00
11:46 PM,66.2,66.2,100,30.19,10.0,ESE,4.6,-,N/A,,Light Drizzle,120,2013-01-29 05:46:00
11:48 PM,66.2,66.2,100,30.19,10.0,ESE,5.8,-,N/A,,Light Drizzle,120,2013-01-29 05:48:00
11:55 PM,65.3,65.3,100,30.19,10.0,SE,5.8,-,0.00,,Mostly Cloudy,130,2013-01-29 05:55:00
11:57 PM,64.4,64.4,100,30.19,10.0,SE,6.9,-,N/A,,Light Drizzle,130,2013-01-29 05:57:00